User: anonymous   Login
Location: Unspecified
(0.0000°N, 0.0000°E)
Time: 04:49:05
(UTC+02:00)
Language:

ARIANE 5 R/B - Orbit

View from above orbital plane
View from above orbital plane
View from above satellite
View from above satellite

Ground track
Ground track

The orbit data is extracted from the following two-line orbital elements,

1 28379U 04027B   17201.82453822 -.00000153 +00000-0 +80995-3 0  9991
2 28379 007.2296 318.2899 7283674 094.1591 011.9047 02.07932340098822
Epoch (UTC): 20 July 2017 19:47:20
Eccentricity: 0.7283674
inclination: 7.2296°
perigee height: 665 km
apogee height: 38436 km
right ascension of ascending node: 318.2899°
argument of perigee: 94.1591°
revolutions per day: 2.07932340
mean anomaly at epoch: 11.9047°
orbit number at epoch: 9882

The dashed part of the orbit path shows where the satellite is in the earth's shadow,  

DLR